Weather History for Cairo, IL

Change the Weather History Date:

Tuesday, February 19, 2013

  Actual Average Record
Temperature  
Mean Temperature 40 °F -  
Max Temperature 48 °F 49 °F 66 °F (1981)
Min Temperature 32 °F 32 °F 8 °F (2006)
Degree Days  
Heating Degree Days 25    
Moisture  
Dew Point 21 °F    
Average Humidity 51    
Maximum Humidity 76    
Minimum Humidity 25    
Precipitation  
Precipitation 0.00 in - - ()
Sea Level Pressure  
Sea Level Pressure 30.14 in    
Wind  
Wind Speed 13 mph (WNW)    
Max Wind Speed 21 mph    
Max Gust Speed 26 mph    
Visibility 10 miles    
Events      
Averages and records for this station are not official NWS values.
T = Trace of Precipitation, MM = Missing Value Source: NWS Daily Summary

Daily Weather History Graph

Daily Weather History Graph

Search for Another Location

Airport:

Trip Planner

Search our weather history database for the weather conditions in past years. The results will help you decide how hot, cold, wet, or windy it might be!

Date:

Astronomy

Feb. 19, 2013 Rise Set
Actual Time 6:40 AM CST 5:41 PM CST
Civil Twilight 6:14 AM CST 6:07 PM CST
Nautical Twilight 5:43 AM CST 6:38 PM CST
Astronomical Twilight 5:13 AM CST 7:08 PM CST
Moon 12:17 PM CST (2/19) 2:08 AM CST (2/19)
Length of Visible Light 11h 53m
Length of Day
11h 00m
Waxing Gibbous, 67% of the Moon is Illuminated
Feb 19
Waxing Gibbous
Feb 25
Full
Mar 4
Last Quarter
Mar 11
New
Mar 19
First Quarter

Hourly Weather History & Observations

Time (CST) Temp. Windchill Dew Point Humidity Pressure Visibility Wind Dir Wind Speed Gust Speed Precip Events Conditions
12:15 AM 44.6 °F 38.8 °F 37.4 °F 76% 29.91 in 10.0 mi WNW 11.5 mph 17.3 mph N/A   Overcast
12:35 AM 44.6 °F 38.4 °F 37.4 °F 76% 29.92 in 10.0 mi WNW 12.7 mph 20.7 mph N/A   Overcast
1:15 AM 44.6 °F 36.6 °F 35.6 °F 71% 29.94 in 10.0 mi WNW 19.6 mph 26.5 mph N/A   Overcast
1:35 AM 42.8 °F 34.0 °F 33.8 °F 70% 29.95 in 10.0 mi WNW 20.7 mph 26.5 mph N/A   Overcast
1:55 AM 41.0 °F 32.5 °F 32.0 °F 70% 29.97 in 10.0 mi West 17.3 mph 24.2 mph N/A   Overcast
2:15 AM 41.0 °F 32.8 °F 32.0 °F 70% 29.99 in 10.0 mi West 16.1 mph 23.0 mph N/A   Mostly Cloudy
2:35 AM 39.2 °F 29.8 °F 30.2 °F 70% 30.00 in 10.0 mi West 18.4 mph - N/A   Scattered Clouds
2:55 AM 37.4 °F 28.9 °F 28.4 °F 70% 30.00 in 10.0 mi West 13.8 mph 19.6 mph N/A   Scattered Clouds
3:15 AM 37.4 °F 28.9 °F 28.4 °F 70% 30.01 in 10.0 mi West 13.8 mph 18.4 mph N/A   Overcast
3:35 AM 37.4 °F 29.3 °F 28.4 °F 70% 30.01 in 10.0 mi West 12.7 mph - N/A   Mostly Cloudy
3:55 AM 35.6 °F 27.1 °F 26.6 °F 70% 30.02 in 10.0 mi West 12.7 mph 18.4 mph N/A   Scattered Clouds
4:15 AM 35.6 °F 28.0 °F 26.6 °F 70% 30.03 in 10.0 mi West 10.4 mph - N/A   Clear
4:35 AM 35.6 °F 28.6 °F 26.6 °F 70% 30.04 in 10.0 mi West 9.2 mph - N/A   Clear
4:55 AM 35.6 °F 27.1 °F 26.6 °F 70% 30.05 in 10.0 mi West 12.7 mph 18.4 mph N/A   Clear
5:15 AM 35.6 °F 26.6 °F 26.6 °F 70% 30.05 in 10.0 mi West 13.8 mph 18.4 mph N/A   Clear
5:35 AM 35.6 °F 26.2 °F 24.8 °F 65% 30.06 in 10.0 mi WNW 15.0 mph 18.4 mph N/A   Clear
5:55 AM 33.8 °F 27.7 °F 23.0 °F 65% 30.07 in 10.0 mi West 6.9 mph - N/A   Clear
6:15 AM 33.8 °F 25.3 °F 23.0 °F 65% 30.08 in 10.0 mi West 11.5 mph 17.3 mph N/A   Clear
6:35 AM 33.8 °F 27.7 °F 23.0 °F 65% 30.08 in 10.0 mi West 6.9 mph - N/A   Clear
6:55 AM 33.8 °F 27.0 °F 24.8 °F 70% 30.09 in 10.0 mi West 8.1 mph - N/A   Clear
7:15 AM 33.8 °F 26.4 °F 24.8 °F 70% 30.09 in 10.0 mi WSW 9.2 mph - N/A   Clear
7:35 AM 33.8 °F 26.4 °F 23.0 °F 65% 30.11 in 10.0 mi West 9.2 mph - N/A   Clear
7:55 AM 35.6 °F 27.5 °F 23.0 °F 60% 30.11 in 10.0 mi West 11.5 mph - N/A   Clear
8:35 AM 35.6 °F 25.9 °F 23.0 °F 60% 30.13 in 10.0 mi West 16.1 mph 19.6 mph N/A   Clear
8:55 AM 37.4 °F 28.2 °F 23.0 °F 56% 30.13 in 10.0 mi West 16.1 mph 21.9 mph N/A   Clear
9:15 AM 37.4 °F 29.3 °F 21.2 °F 52% 30.14 in 10.0 mi WNW 12.7 mph 18.4 mph N/A   Clear
9:35 AM 37.4 °F 29.3 °F 21.2 °F 52% 30.15 in 10.0 mi West 12.7 mph 21.9 mph N/A   Clear
9:55 AM 37.4 °F 28.5 °F 21.2 °F 52% 30.15 in 10.0 mi West 15.0 mph 21.9 mph N/A   Clear
10:15 AM 39.2 °F 30.8 °F 23.0 °F 52% 30.16 in 10.0 mi West 15.0 mph 20.7 mph N/A   Clear
10:35 AM 39.2 °F 30.5 °F 23.0 °F 52% 30.17 in 10.0 mi WNW 16.1 mph 25.3 mph N/A   Clear
10:55 AM 41.0 °F 32.8 °F 21.2 °F 45% 30.17 in 10.0 mi WNW 16.1 mph - N/A   Clear
11:15 AM 41.0 °F 33.5 °F 24.8 °F 53% 30.17 in 10.0 mi WSW 13.8 mph 18.4 mph N/A   Clear
11:35 AM 41.0 °F 33.1 °F 23.0 °F 49% 30.17 in 10.0 mi West 15.0 mph 20.7 mph N/A   Clear
11:55 AM 42.8 °F 35.4 °F 21.2 °F 42% 30.17 in 10.0 mi WSW 15.0 mph 21.9 mph N/A   Clear
12:15 PM 42.8 °F 35.8 °F 21.2 °F 42% 30.17 in 10.0 mi West 13.8 mph 21.9 mph N/A   Clear
12:35 PM 42.8 °F 35.1 °F 21.2 °F 42% 30.17 in 10.0 mi West 16.1 mph 19.6 mph N/A   Clear
12:55 PM 44.6 °F 37.8 °F 21.2 °F 39% 30.16 in 10.0 mi West 15.0 mph 19.6 mph N/A   Clear
1:15 PM 44.6 °F 38.1 °F 23.0 °F 43% 30.16 in 10.0 mi West 13.8 mph 20.7 mph N/A   Clear
1:35 PM 44.6 °F 37.8 °F 21.2 °F 39% 30.16 in 10.0 mi WSW 15.0 mph 20.7 mph N/A   Clear
1:55 PM 46.4 °F 40.1 °F 21.2 °F 37% 30.16 in 10.0 mi West 15.0 mph 21.9 mph N/A   Clear
2:15 PM 46.4 °F 39.8 °F 19.4 °F 34% 30.16 in 10.0 mi West 16.1 mph 21.9 mph N/A   Clear
2:35 PM 46.4 °F 40.1 °F 19.4 °F 34% 30.16 in 10.0 mi West 15.0 mph 25.3 mph N/A   Clear
2:55 PM 46.4 °F 39.8 °F 19.4 °F 34% 30.16 in 10.0 mi West 16.1 mph 19.6 mph N/A   Clear
3:15 PM 46.4 °F 40.7 °F 17.6 °F 32% 30.17 in 10.0 mi West 12.7 mph 18.4 mph N/A   Clear
3:35 PM 48.2 °F - 17.6 °F 30% 30.17 in 10.0 mi West 12.7 mph - N/A   Clear
3:55 PM 46.4 °F 40.1 °F 17.6 °F 32% 30.18 in 10.0 mi West 15.0 mph 20.7 mph N/A   Clear
4:15 PM 46.4 °F 40.4 °F 17.6 °F 32% 30.18 in 10.0 mi West 13.8 mph 17.3 mph N/A   Clear
4:35 PM 46.4 °F 39.8 °F 15.8 °F 29% 30.18 in 10.0 mi West 16.1 mph 21.9 mph N/A   Clear
4:55 PM 46.4 °F 41.5 °F 12.2 °F 25% 30.18 in 10.0 mi WNW 10.4 mph - N/A   Clear
5:15 PM 44.6 °F 39.2 °F 14.0 °F 29% 30.19 in 10.0 mi WNW 10.4 mph 16.1 mph N/A   Clear
6:35 PM 41.0 °F 37.1 °F 12.2 °F 31% 30.20 in 10.0 mi NW 5.8 mph - N/A   Clear
6:55 PM 39.2 °F 35.0 °F 14.0 °F 36% 30.20 in 10.0 mi WNW 5.8 mph - N/A   Clear
7:15 PM 39.2 °F 34.2 °F 14.0 °F 36% 30.21 in 10.0 mi NW 6.9 mph - N/A   Clear
7:35 PM 39.2 °F 33.0 °F 12.2 °F 33% 30.21 in 10.0 mi NW 9.2 mph - N/A   Clear
7:55 PM 37.4 °F 32.8 °F 12.2 °F 36% 30.23 in 10.0 mi NW 5.8 mph - N/A   Clear
8:15 PM 37.4 °F 32.1 °F 12.2 °F 36% 30.24 in 10.0 mi NW 6.9 mph - N/A   Clear
8:35 PM 37.4 °F 31.4 °F 12.2 °F 36% 30.25 in 10.0 mi NW 8.1 mph - N/A   Clear
8:55 PM 37.4 °F 29.8 °F 12.2 °F 36% 30.26 in 10.0 mi NW 11.5 mph - N/A   Clear
9:15 PM 35.6 °F 29.2 °F 12.2 °F 38% 30.28 in 10.0 mi NW 8.1 mph - N/A   Clear
9:35 PM 35.6 °F 28.0 °F 12.2 °F 38% 30.28 in 10.0 mi NW 10.4 mph - N/A   Clear
9:55 PM 33.8 °F 25.8 °F 12.2 °F 41% 30.28 in 10.0 mi NNW 10.4 mph - N/A   Clear
10:15 PM 33.8 °F 25.8 °F 14.0 °F 44% 30.28 in 10.0 mi NNW 10.4 mph - N/A   Clear
10:35 PM 33.8 °F 26.4 °F 14.0 °F 44% 30.27 in 10.0 mi NNW 9.2 mph - N/A   Clear
10:55 PM 32.0 °F 25.6 °F 14.0 °F 48% 30.28 in 10.0 mi NNW 6.9 mph - N/A   Clear
11:15 PM 32.0 °F 27.5 °F 14.0 °F 48% 30.29 in 10.0 mi NW 4.6 mph - N/A   Clear
11:35 PM 32.0 °F 23.6 °F 15.8 °F 51% 30.30 in 10.0 mi NNW 10.4 mph - N/A   Clear
11:55 PM 32.0 °F 24.2 °F 15.8 °F 51% 30.31 in 10.0 mi NNW 9.2 mph - N/A   Clear